When you browse on this site, cookies collect data to enhance your experience and personalize the content and advertising you see.
Visit our Privacy Policy to learn more. By continuing to use the site, you agree to this use of cookies and data.
  • In United Kingdom
  • List of Countries
  • For 7 days
  • Water Temperature
  • Weather Map
  • Weather Widgets
  • user-avatar
    Login

    Hourly Weather Monroe

    Today, 25 August, Sunday

    Time Temperature Precipitation Wind Pressure Humidity
    00:00 +15°C° 0 mm 4 mps 751 mmHg 84%
    01:00 +15°C° 0 mm 4 mps 751 mmHg 84%
    02:00 +15°C° 0 mm 4 mps 751 mmHg 84%
    03:00 +16°C° 0 mm 3 mps 751 mmHg 84%
    04:00 +16°C° 0 mm 3 mps 751 mmHg 83%
    05:00 +17°C° 0 mm 3 mps 751 mmHg 82%
    06:00 +17°C° 0 mm 3 mps 751 mmHg 81%
    07:00 +18°C° 0 mm 4 mps 751 mmHg 76%
    08:00 +20°C° 0 mm 5 mps 751 mmHg 71%
    09:00 +21°C° 0 mm 5 mps 751 mmHg 66%
    10:00 +22°C° 0 mm 5 mps 750 mmHg 65%
    11:00 +22°C° 0 mm 5 mps 750 mmHg 64%
    12:00 +22°C° 0 mm 6 mps 750 mmHg 62%
    13:00 +22°C° 0 mm 6 mps 749 mmHg 64%
    14:00 +22°C° 0 mm 6 mps 749 mmHg 65%
    15:00 +22°C° 0 mm 6 mps 748 mmHg 66%
    16:00 +21°C° 0 mm 5 mps 748 mmHg 69%
    17:00 +20°C° 0 mm 4 mps 748 mmHg 71%
    18:00 +20°C° 0 mm 4 mps 748 mmHg 74%
    19:00 +19°C° 0 mm 4 mps 748 mmHg 75%
    20:00 +19°C° 0 mm 4 mps 748 mmHg 75%
    21:00 +19°C° 0 mm 4 mps 748 mmHg 75%
    22:00 +19°C° 0 mm 5 mps 748 mmHg 75%
    23:00 +19°C° 0 mm 6 mps 747 mmHg 74%

    Tomorrow, 26 August, Monday

    Time Temperature Precipitation Wind Pressure Humidity
    00:00 +19°C° 0 mm 6 mps 747 mmHg 73%
    01:00 +19°C° 0 mm 6 mps 747 mmHg 75%
    02:00 +17°C° 0 mm 6 mps 746 mmHg 77%
    03:00 +17°C° 0 mm 5 mps 746 mmHg 79%
    04:00 +17°C° 0 mm 6 mps 746 mmHg 79%
    05:00 +17°C° 0 mm 6 mps 746 mmHg 79%
    06:00 +17°C° 0 mm 6 mps 746 mmHg 79%
    07:00 +19°C° 0 mm 6 mps 746 mmHg 78%
    08:00 +20°C° 0 mm 7 mps 746 mmHg 77%
    09:00 +21°C° 0 mm 7 mps 745 mmHg 75%
    10:00 +21°C° 0.1 mm 7 mps 745 mmHg 78%
    11:00 +21°C° 0.1 mm 6 mps 745 mmHg 81%
    12:00 +21°C° 0.1 mm 6 mps 744 mmHg 83%
    13:00 +20°C° 2.8 mm 7 mps 744 mmHg 87%
    14:00 +18°C° 2.8 mm 8 mps 743 mmHg 90%
    15:00 +17°C° 2.8 mm 8 mps 743 mmHg 94%
    16:00 +18°C° 3.6 mm 8 mps 743 mmHg 94%
    17:00 +18°C° 3.6 mm 8 mps 743 mmHg 94%
    18:00 +18°C° 3.6 mm 9 mps 742 mmHg 94%
    19:00 +18°C° 0.3 mm 8 mps 742 mmHg 93%
    20:00 +20°C° 0.3 mm 8 mps 742 mmHg 93%
    21:00 +20°C° 0.3 mm 8 mps 742 mmHg 93%
    22:00 +20°C° 0.4 mm 8 mps 741 mmHg 93%
    23:00 +20°C° 0.4 mm 8 mps 741 mmHg 94%

    Day after tomorrow, 27 August, Tuesday

    Time Temperature Precipitation Wind Pressure Humidity
    00:00 +20°C° 0.4 mm 7 mps 741 mmHg 94%
    01:00 +21°C° 0.5 mm 7 mps 741 mmHg 94%
    02:00 +21°C° 0.5 mm 7 mps 740 mmHg 94%
    03:00 +21°C° 0.5 mm 7 mps 740 mmHg 94%
    04:00 +21°C° 0.1 mm 7 mps 740 mmHg 94%
    05:00 +21°C° 0.1 mm 7 mps 740 mmHg 94%
    06:00 +21°C° 0.1 mm 7 mps 740 mmHg 94%
    07:00 +22°C° 0.4 mm 7 mps 740 mmHg 93%
    08:00 +22°C° 0.4 mm 8 mps 740 mmHg 92%
    09:00 +23°C° 0.4 mm 8 mps 739 mmHg 91%
    10:00 +24°C° 0.3 mm 8 mps 739 mmHg 89%
    11:00 +26°C° 0.3 mm 8 mps 740 mmHg 86%
    12:00 +27°C° 0.3 mm 8 mps 740 mmHg 84%
    13:00 +27°C° 0.3 mm 7 mps 740 mmHg 81%
    14:00 +28°C° 0.3 mm 6 mps 740 mmHg 78%
    15:00 +28°C° 0.3 mm 5 mps 740 mmHg 75%
    16:00 +27°C° 0.1 mm 5 mps 740 mmHg 77%
    17:00 +26°C° 0.1 mm 4 mps 740 mmHg 80%
    18:00 +23°C° 0.1 mm 4 mps 741 mmHg 82%
    19:00 +22°C° 0 mm 4 mps 741 mmHg 84%
    20:00 +21°C° 0 mm 4 mps 741 mmHg 86%
    21:00 +20°C° 0 mm 4 mps 742 mmHg 88%
    22:00 +19°C° 0 mm 3 mps 742 mmHg 88%
    23:00 +18°C° 0 mm 3 mps 742 mmHg 88%

    28 August, Wednesday

    Time Temperature Precipitation Wind Pressure Humidity
    00:00 +18°C° 0 mm 3 mps 742 mmHg 88%
    01:00 +18°C° 0 mm 3 mps 742 mmHg 88%
    02:00 +17°C° 0 mm 3 mps 742 mmHg 88%
    03:00 +17°C° 0 mm 3 mps 742 mmHg 87%
    04:00 +17°C° 0 mm 3 mps 742 mmHg 87%
    05:00 +18°C° 0 mm 4 mps 742 mmHg 87%
    06:00 +18°C° 0 mm 4 mps 743 mmHg 87%
    07:00 +19°C° 0 mm 4 mps 743 mmHg 82%
    08:00 +21°C° 0 mm 5 mps 743 mmHg 77%
    09:00 +23°C° 0 mm 5 mps 743 mmHg 72%
    10:00 +23°C° 0.1 mm 6 mps 743 mmHg 69%
    11:00 +24°C° 0.1 mm 6 mps 742 mmHg 67%
    12:00 +26°C° 0.1 mm 7 mps 742 mmHg 64%
    13:00 +24°C° 0 mm 7 mps 742 mmHg 64%
    14:00 +24°C° 0 mm 7 mps 742 mmHg 64%
    15:00 +23°C° 0 mm 7 mps 742 mmHg 64%
    16:00 +22°C° 0 mm 6 mps 742 mmHg 67%
    17:00 +21°C° 0 mm 6 mps 742 mmHg 70%
    18:00 +20°C° 0 mm 6 mps 742 mmHg 74%
    19:00 +19°C° 0 mm 5 mps 742 mmHg 76%
    20:00 +17°C° 0 mm 5 mps 742 mmHg 77%
    21:00 +16°C° 0 mm 5 mps 743 mmHg 79%
    22:00 +17°C° 0 mm 4 mps 742 mmHg 79%
    23:00 +17°C° 0 mm 4 mps 742 mmHg 79%

    29 August, Thursday

    Time Temperature Precipitation Wind Pressure Humidity
    00:00 +17°C° 0 mm 4 mps 742 mmHg 80%
    01:00 +15°C° 0 mm 4 mps 742 mmHg 82%
    02:00 +15°C° 0 mm 4 mps 742 mmHg 85%
    03:00 +14°C° 0 mm 4 mps 743 mmHg 88%
    04:00 +14°C° 0 mm 4 mps 743 mmHg 88%
    05:00 +14°C° 0 mm 4 mps 743 mmHg 89%
    06:00 +14°C° 0 mm 4 mps 743 mmHg 89%
    07:00 +15°C° 0 mm 4 mps 744 mmHg 85%
    08:00 +18°C° 0 mm 4 mps 744 mmHg 81%
    09:00 +19°C° 0 mm 4 mps 745 mmHg 76%
    10:00 +19°C° 0.1 mm 4 mps 745 mmHg 76%
    11:00 +19°C° 0.1 mm 4 mps 745 mmHg 75%
    12:00 +20°C° 0.1 mm 5 mps 745 mmHg 74%
    13:00 +20°C° 0 mm 5 mps 745 mmHg 73%
    14:00 +20°C° 0 mm 5 mps 745 mmHg 73%
    15:00 +20°C° 0 mm 4 mps 744 mmHg 73%
    16:00 +19°C° 0 mm 4 mps 745 mmHg 75%
    17:00 +19°C° 0 mm 4 mps 745 mmHg 78%
    18:00 +18°C° 0 mm 4 mps 745 mmHg 81%
    19:00 +17°C° 0 mm 4 mps 745 mmHg 83%
    20:00 +15°C° 0 mm 4 mps 745 mmHg 85%
    21:00 +15°C° 0 mm 4 mps 746 mmHg 88%
    22:00 +14°C° 0 mm 4 mps 746 mmHg 88%
    23:00 +14°C° 0 mm 3 mps 746 mmHg 88%

    30 August, Friday

    Time Temperature Precipitation Wind Pressure Humidity
    00:00 +13°C° 0 mm 3 mps 746 mmHg 89%
    01:00 +13°C° 0 mm 3 mps 746 mmHg 89%
    02:00 +13°C° 0 mm 3 mps 746 mmHg 90%
    03:00 +13°C° 0 mm 3 mps 746 mmHg 90%
    04:00 +13°C° 0 mm 3 mps 746 mmHg 91%
    05:00 +13°C° 0 mm 3 mps 746 mmHg 91%
    06:00 +14°C° 0 mm 3 mps 746 mmHg 91%
    07:00 +15°C° 0 mm 4 mps 746 mmHg 87%
    08:00 +18°C° 0 mm 4 mps 746 mmHg 82%
    09:00 +20°C° 0 mm 5 mps 746 mmHg 78%
    10:00 +21°C° 0 mm 5 mps 746 mmHg 75%
    11:00 +22°C° 0 mm 5 mps 746 mmHg 71%
    12:00 +23°C° 0 mm 5 mps 746 mmHg 68%
    13:00 +23°C° 0 mm 5 mps 746 mmHg 70%
    14:00 +23°C° 0 mm 5 mps 745 mmHg 72%
    15:00 +23°C° 0 mm 5 mps 745 mmHg 74%
    16:00 +23°C° 0 mm 5 mps 745 mmHg 77%
    17:00 +22°C° 0 mm 4 mps 746 mmHg 80%
    18:00 +21°C° 0 mm 4 mps 746 mmHg 84%
    19:00 +21°C° 0.1 mm 4 mps 746 mmHg 86%
    20:00 +20°C° 0.1 mm 4 mps 746 mmHg 88%
    21:00 +20°C° 0.1 mm 4 mps 747 mmHg 90%
    22:00 +19°C° 0 mm 4 mps 747 mmHg 90%
    23:00 +18°C° 0 mm 4 mps 747 mmHg 89%
    Show more